Back to catalog

OSCAR 10

AliveAmateur RadioHEO
NORAD 14129·PAYLOAD·🇩🇪 Germany

Launched Jun 16, 1983 from Guiana Space Centre

Loading…

Next Passes (next 24 hours)

TLE

FreshSource: Space-Track

Epoch: Sep 10, 2026, 19:39 UTC

1 14129U 83058B   26253.81923402 -.00000299  00000-0  00000+0 0  9998
2 14129  25.9748 205.5539 5983154 139.1490 286.0555  2.05871418297257

Track OSCAR 10 in real time with AllMySat

Download on the App Store